Location: Dodge City Community College Clyde Tombaugh Astronomy Center
(37.7756°N, 100.0412°W)
Time: 08:41:06
(UTC+00:00)

X-37B - Visible Passes

Search period start: 28 November 2022 00:00
Search period end: 08 December 2022 00:00
Orbit: 277 x 277 km, 45.0° (Epoch: 01 November)

Date Brightness Start Highest point End Pass type
(mag) Time Alt. Az. Time Alt. Az. Time Alt. Az.
05 Dec 2.5 00:59:33 10° SSW 01:00:20 15° S 01:00:20 15° S visible
06 Dec 1.7 00:59:48 10° SW 01:01:14 28° SSW 01:01:14 28° SSW visible
07 Dec 1.4 01:00:24 10° WSW 01:02:05 38° WSW 01:02:05 38° WSW visible
